Time,TemperatureF,DewpointF,PressureIn,WindDirection,WindDirectionDegrees,WindSpeedMPH,WindSpeedGustMPH,Humidity,HourlyPrecipIn,Conditions,Clouds,dailyrainin,SoftwareType,DateUTC
2013-02-04 00:00:00,36.5,24.7,29.98,WNW,288,2.0,2.0,62,0.00,,CLR,0.01,VWS V14.01,2013-02-04 05:00:00,
2013-02-04 00:01:00,36.3,24.1,29.98,WNW,288,2.0,2.0,61,0.00,,CLR,0.00,VWS V14.01,2013-02-04 05:01:00,
2013-02-04 00:03:00,36.2,24.5,29.98,WNW,288,2.0,2.0,62,0.00,,CLR,0.00,VWS V14.01,2013-02-04 05:03:00,
2013-02-04 00:08:00,35.9,24.2,29.98,WNW,288,2.0,2.0,62,0.00,,CLR,0.00,VWS V14.01,2013-02-04 05:08:00,
2013-02-04 00:13:00,35.9,24.5,29.98,WNW,288,2.0,2.0,63,0.00,,CLR,0.00,VWS V14.01,2013-02-04 05:13:00,
2013-02-04 00:18:00,35.9,25.3,29.98,WNW,288,2.0,2.0,65,0.00,,CLR,0.00,VWS V14.01,2013-02-04 05:18:00,
2013-02-04 00:23:00,35.8,25.2,29.98,WNW,288,2.0,2.0,65,0.00,,CLR,0.00,VWS V14.01,2013-02-04 05:23:00,
2013-02-04 00:28:00,35.6,25.4,29.98,WNW,288,2.0,2.0,66,0.00,,CLR,0.00,VWS V14.01,2013-02-04 05:28:00,
2013-02-04 00:33:00,35.0,25.2,29.98,WNW,288,2.0,2.0,67,0.00,,CLR,0.00,VWS V14.01,2013-02-04 05:33:00,
2013-02-04 00:38:00,34.1,25.0,29.98,WNW,288,2.0,2.0,69,0.00,,CLR,0.00,VWS V14.01,2013-02-04 05:38:00,
2013-02-04 00:43:00,33.7,24.6,29.98,WNW,288,2.0,2.0,69,0.00,,CLR,0.00,VWS V14.01,2013-02-04 05:43:00,
2013-02-04 00:48:00,33.5,23.7,30.00,WNW,288,2.0,2.0,67,0.00,,CLR,0.00,VWS V14.01,2013-02-04 05:48:00,
2013-02-04 00:53:00,33.7,24.3,30.00,WNW,288,2.0,2.0,68,0.00,,CLR,0.00,VWS V14.01,2013-02-04 05:53:00,
2013-02-04 00:58:00,33.7,24.6,30.00,WNW,288,2.0,2.0,69,0.00,,CLR,0.00,VWS V14.01,2013-02-04 05:58:00,
2013-02-04 01:03:00,33.5,24.4,29.99,WNW,288,2.0,2.0,69,0.00,,CLR,0.00,VWS V14.01,2013-02-04 06:03:00,
2013-02-04 01:08:00,32.9,24.9,29.99,WNW,288,2.0,2.0,72,0.00,,CLR,0.00,VWS V14.01,2013-02-04 06:08:00,
2013-02-04 01:13:00,32.7,24.4,29.99,WNW,288,2.0,2.0,71,0.00,,CLR,0.00,VWS V14.01,2013-02-04 06:13:00,
2013-02-04 01:18:00,32.8,24.1,29.98,WNW,288,2.0,2.0,70,0.00,,CLR,0.00,VWS V14.01,2013-02-04 06:18:00,
2013-02-04 01:23:00,32.9,24.2,29.98,WNW,288,2.0,2.0,70,0.00,,CLR,0.00,VWS V14.01,2013-02-04 06:23:00,
2013-02-04 01:28:00,32.9,24.2,29.98,WNW,288,2.0,2.0,70,0.00,,CLR,0.00,VWS V14.01,2013-02-04 06:28:00,
2013-02-04 01:33:00,32.9,24.2,29.98,WNW,288,2.0,2.0,70,0.00,,CLR,0.00,VWS V14.01,2013-02-04 06:33:00,
2013-02-04 01:38:00,32.5,24.8,29.98,WNW,288,2.0,2.0,73,0.00,,CLR,0.00,VWS V14.01,2013-02-04 06:38:00,
2013-02-04 01:43:00,32.4,24.7,29.98,WNW,288,2.0,2.0,73,0.00,,CLR,0.00,VWS V14.01,2013-02-04 06:43:00,
2013-02-04 01:48:00,32.2,24.9,29.98,WNW,288,2.0,2.0,74,0.00,,CLR,0.00,VWS V14.01,2013-02-04 06:48:00,
2013-02-04 01:53:00,31.9,24.9,29.98,WNW,288,2.0,2.0,75,0.00,,CLR,0.00,VWS V14.01,2013-02-04 06:53:00,
2013-02-04 01:58:00,31.2,24.8,29.98,WNW,288,2.0,2.0,77,0.00,,CLR,0.00,VWS V14.01,2013-02-04 06:58:00,
2013-02-04 02:03:00,31.0,25.3,29.99,WNW,288,2.0,2.0,79,0.00,,CLR,0.00,VWS V14.01,2013-02-04 07:03:00,
2013-02-04 02:08:00,31.0,25.0,29.99,WNW,288,2.0,2.0,78,0.00,,CLR,0.00,VWS V14.01,2013-02-04 07:08:00,
2013-02-04 02:13:00,31.2,24.5,29.99,WNW,288,2.0,2.0,76,0.00,,CLR,0.00,VWS V14.01,2013-02-04 07:13:00,
2013-02-04 02:18:00,31.3,24.3,29.99,WNW,288,2.0,2.0,75,0.00,,CLR,0.00,VWS V14.01,2013-02-04 07:18:00,
2013-02-04 02:23:00,31.3,24.3,29.99,WNW,288,2.0,2.0,75,0.00,,CLR,0.00,VWS V14.01,2013-02-04 07:23:00,
2013-02-04 02:28:00,31.0,24.0,29.99,WNW,288,2.0,2.0,75,0.00,,CLR,0.00,VWS V14.01,2013-02-04 07:28:00,
2013-02-04 02:33:00,31.0,24.3,29.98,WNW,288,2.0,2.0,76,0.00,,CLR,0.00,VWS V14.01,2013-02-04 07:33:00,
2013-02-04 02:38:00,30.9,23.9,29.98,WNW,288,2.0,2.0,75,0.00,,CLR,0.00,VWS V14.01,2013-02-04 07:38:00,
2013-02-04 02:43:00,30.9,23.6,29.98,WNW,288,2.0,2.0,74,0.00,,CLR,0.00,VWS V14.01,2013-02-04 07:43:00,
2013-02-04 02:48:00,30.7,24.0,29.99,WNW,288,2.0,2.0,76,0.00,,CLR,0.00,VWS V14.01,2013-02-04 07:48:00,
2013-02-04 02:53:00,30.3,24.6,29.99,WNW,288,2.0,2.0,79,0.00,,CLR,0.00,VWS V14.01,2013-02-04 07:53:00,
2013-02-04 02:58:00,30.3,24.9,29.99,WNW,288,2.0,2.0,80,0.00,,CLR,0.00,VWS V14.01,2013-02-04 07:58:00,
2013-02-04 03:03:00,30.1,24.7,30.00,WNW,288,2.0,2.0,80,0.00,,CLR,0.00,VWS V14.01,2013-02-04 08:03:00,
2013-02-04 03:08:00,30.1,24.4,30.00,WNW,288,2.0,2.0,79,0.00,,CLR,0.00,VWS V14.01,2013-02-04 08:08:00,
2013-02-04 03:13:00,30.0,24.3,30.00,WNW,288,2.0,2.0,79,0.00,,CLR,0.00,VWS V14.01,2013-02-04 08:13:00,
2013-02-04 03:18:00,29.8,24.1,30.01,WNW,288,2.0,2.0,79,0.00,,CLR,0.00,VWS V14.01,2013-02-04 08:18:00,
2013-02-04 03:23:00,29.7,24.0,30.01,WNW,288,2.0,2.0,79,0.00,,CLR,0.00,VWS V14.01,2013-02-04 08:23:00,
2013-02-04 03:28:00,29.5,24.4,30.01,WNW,288,2.0,2.0,81,0.00,,CLR,0.00,VWS V14.01,2013-02-04 08:28:00,
2013-02-04 03:33:00,29.5,23.8,30.01,WNW,288,2.0,2.0,79,0.00,,CLR,0.00,VWS V14.01,2013-02-04 08:33:00,
2013-02-04 03:38:00,29.3,23.6,30.01,WNW,288,2.0,2.0,79,0.00,,CLR,0.00,VWS V14.01,2013-02-04 08:38:00,
2013-02-04 03:43:00,29.0,23.3,30.01,WNW,288,2.0,2.0,79,0.00,,CLR,0.00,VWS V14.01,2013-02-04 08:43:00,
2013-02-04 03:48:00,29.0,23.3,30.01,WNW,288,2.0,2.0,79,0.00,,CLR,0.00,VWS V14.01,2013-02-04 08:48:00,
2013-02-04 03:53:00,29.0,23.6,30.01,WNW,288,2.0,2.0,80,0.00,,CLR,0.00,VWS V14.01,2013-02-04 08:53:00,
2013-02-04 03:58:00,28.8,23.4,30.01,WNW,288,2.0,2.0,80,0.00,,CLR,0.00,VWS V14.01,2013-02-04 08:58:00,
2013-02-04 04:03:00,28.7,23.3,30.01,WNW,288,2.0,2.0,80,0.00,,CLR,0.00,VWS V14.01,2013-02-04 09:03:00,
2013-02-04 04:08:00,28.7,23.3,30.01,WNW,288,2.0,2.0,80,0.00,,CLR,0.00,VWS V14.01,2013-02-04 09:08:00,
2013-02-04 04:13:00,28.7,23.3,30.01,WNW,288,2.0,2.0,80,0.00,,CLR,0.00,VWS V14.01,2013-02-04 09:13:00,
2013-02-04 04:18:00,28.5,23.1,30.01,WNW,288,2.0,2.0,80,0.00,,CLR,0.00,VWS V14.01,2013-02-04 09:18:00,
2013-02-04 04:23:00,28.5,23.4,30.01,WNW,288,2.0,2.0,81,0.00,,CLR,0.00,VWS V14.01,2013-02-04 09:23:00,
2013-02-04 04:28:00,28.4,23.3,30.01,WNW,288,2.0,2.0,81,0.00,,CLR,0.00,VWS V14.01,2013-02-04 09:28:00,
2013-02-04 04:33:00,28.4,23.3,30.01,WNW,288,2.0,2.0,81,0.00,,CLR,0.00,VWS V14.01,2013-02-04 09:33:00,
2013-02-04 04:38:00,28.2,23.1,30.01,WNW,288,2.0,2.0,81,0.00,,CLR,0.00,VWS V14.01,2013-02-04 09:38:00,
2013-02-04 04:43:00,28.2,23.1,30.01,WNW,288,2.0,2.0,81,0.00,,CLR,0.00,VWS V14.01,2013-02-04 09:43:00,
2013-02-04 04:48:00,28.1,23.0,30.00,WNW,288,2.0,2.0,81,0.00,,CLR,0.00,VWS V14.01,2013-02-04 09:48:00,
2013-02-04 04:53:00,28.1,23.0,30.00,WNW,288,2.0,2.0,81,0.00,,CLR,0.00,VWS V14.01,2013-02-04 09:53:00,
2013-02-04 04:58:00,28.1,23.3,30.00,WNW,288,2.0,2.0,82,0.00,,CLR,0.00,VWS V14.01,2013-02-04 09:58:00,
2013-02-04 05:03:00,28.1,23.3,30.01,WNW,288,2.0,2.0,82,0.00,,CLR,0.00,VWS V14.01,2013-02-04 10:03:00,
2013-02-04 05:08:00,27.9,22.8,30.01,WNW,288,2.0,2.0,81,0.00,,CLR,0.00,VWS V14.01,2013-02-04 10:08:00,
2013-02-04 05:13:00,27.9,22.8,30.01,WNW,288,2.0,2.0,81,0.00,,CLR,0.00,VWS V14.01,2013-02-04 10:13:00,
2013-02-04 05:18:00,27.9,22.8,30.01,WNW,288,2.0,2.0,81,0.00,,CLR,0.00,VWS V14.01,2013-02-04 10:18:00,
2013-02-04 05:23:00,27.9,23.1,30.01,WNW,288,2.0,2.0,82,0.00,,CLR,0.00,VWS V14.01,2013-02-04 10:23:00,
2013-02-04 05:28:00,27.9,23.1,30.01,WNW,288,2.0,2.0,82,0.00,,CLR,0.00,VWS V14.01,2013-02-04 10:28:00,
2013-02-04 05:33:00,27.9,23.1,30.01,WNW,288,2.0,2.0,82,0.00,,CLR,0.00,VWS V14.01,2013-02-04 10:33:00,
2013-02-04 05:38:00,27.8,23.0,30.01,WNW,288,2.0,2.0,82,0.00,,CLR,0.00,VWS V14.01,2013-02-04 10:38:00,
2013-02-04 05:43:00,27.8,23.0,30.01,WNW,288,2.0,2.0,82,0.00,,CLR,0.00,VWS V14.01,2013-02-04 10:43:00,
2013-02-04 05:48:00,27.8,23.3,30.02,WNW,288,2.0,2.0,83,0.00,,CLR,0.00,VWS V14.01,2013-02-04 10:48:00,
2013-02-04 05:53:00,27.9,23.4,30.02,WNW,288,2.0,2.0,83,0.00,,CLR,0.00,VWS V14.01,2013-02-04 10:53:00,
2013-02-04 05:58:00,27.9,23.4,30.02,WNW,288,2.0,2.0,83,0.00,,CLR,0.00,VWS V14.01,2013-02-04 10:58:00,
2013-02-04 06:03:00,27.9,23.1,30.02,WNW,288,2.0,2.0,82,0.00,,CLR,0.00,VWS V14.01,2013-02-04 11:03:00,
2013-02-04 06:08:00,27.9,22.8,30.02,WNW,288,2.0,2.0,81,0.00,,CLR,0.00,VWS V14.01,2013-02-04 11:08:00,
2013-02-04 06:13:00,27.9,23.4,30.02,WNW,288,2.0,2.0,83,0.00,,CLR,0.00,VWS V14.01,2013-02-04 11:13:00,
2013-02-04 06:18:00,27.9,23.4,30.03,WNW,288,2.0,2.0,83,0.00,,CLR,0.00,VWS V14.01,2013-02-04 11:18:00,
2013-02-04 06:23:00,27.8,23.3,30.03,WNW,288,2.0,2.0,83,0.00,,CLR,0.00,VWS V14.01,2013-02-04 11:23:00,
2013-02-04 06:28:00,27.8,23.3,30.03,WNW,288,2.0,2.0,83,0.00,,CLR,0.00,VWS V14.01,2013-02-04 11:28:00,
2013-02-04 06:33:00,27.8,23.0,30.03,WNW,288,2.0,2.0,82,0.00,,CLR,0.00,VWS V14.01,2013-02-04 11:33:00,
2013-02-04 06:38:00,27.8,23.0,30.03,WNW,288,2.0,2.0,82,0.00,,CLR,0.00,VWS V14.01,2013-02-04 11:38:00,
2013-02-04 06:43:00,27.8,23.0,30.03,WNW,288,2.0,2.0,82,0.00,,CLR,0.00,VWS V14.01,2013-02-04 11:43:00,
2013-02-04 06:48:00,27.6,22.8,30.04,WNW,288,2.0,2.0,82,0.00,,CLR,0.00,VWS V14.01,2013-02-04 11:48:00,
2013-02-04 06:52:00,27.6,22.5,30.04,WNW,288,2.0,2.0,81,0.00,,CLR,0.00,VWS V14.01,2013-02-04 11:52:00,
2013-02-04 06:57:00,27.5,22.1,30.04,WNW,288,2.0,2.0,80,0.00,,CLR,0.00,VWS V14.01,2013-02-04 11:57:00,
2013-02-04 07:02:00,27.6,22.8,30.04,WNW,288,2.0,2.0,82,0.00,,CLR,0.00,VWS V14.01,2013-02-04 12:02:00,
2013-02-04 07:07:00,27.6,22.2,30.04,WNW,288,2.0,2.0,80,0.00,,CLR,0.00,VWS V14.01,2013-02-04 12:07:00,
2013-02-04 07:12:00,27.6,22.2,30.04,WNW,288,2.0,2.0,80,0.00,,CLR,0.00,VWS V14.01,2013-02-04 12:12:00,
2013-02-04 07:17:00,27.8,22.4,30.04,WNW,288,2.0,2.0,80,0.00,,CLR,0.00,VWS V14.01,2013-02-04 12:17:00,
2013-02-04 07:22:00,27.8,22.4,30.04,WNW,288,2.0,2.0,80,0.00,,CLR,0.00,VWS V14.01,2013-02-04 12:22:00,
2013-02-04 07:27:00,27.8,22.4,30.04,WNW,288,2.0,2.0,80,0.00,,CLR,0.00,VWS V14.01,2013-02-04 12:27:00,
2013-02-04 07:32:00,27.9,22.8,30.06,WNW,288,2.0,2.0,81,0.00,,CLR,0.00,VWS V14.01,2013-02-04 12:32:00,
2013-02-04 07:37:00,28.1,23.6,30.06,WNW,288,2.0,2.0,83,0.00,,CLR,0.00,VWS V14.01,2013-02-04 12:37:00,
2013-02-04 07:42:00,28.1,23.3,30.06,WNW,288,2.0,2.0,82,0.00,,CLR,0.00,VWS V14.01,2013-02-04 12:42:00,
2013-02-04 07:47:00,28.2,23.4,30.08,WNW,288,2.0,2.0,82,0.00,,CLR,0.00,VWS V14.01,2013-02-04 12:47:00,
2013-02-04 07:52:00,28.2,23.4,30.08,WNW,288,2.0,2.0,82,0.00,,CLR,0.00,VWS V14.01,2013-02-04 12:52:00,
2013-02-04 07:57:00,28.4,23.6,30.08,WNW,288,2.0,2.0,82,0.00,,CLR,0.00,VWS V14.01,2013-02-04 12:57:00,
2013-02-04 08:02:00,28.5,23.7,30.07,WNW,288,2.0,2.0,82,0.00,,CLR,0.00,VWS V14.01,2013-02-04 13:02:00,
2013-02-04 08:07:00,28.7,23.9,30.07,WNW,288,2.0,2.0,82,0.00,,CLR,0.00,VWS V14.01,2013-02-04 13:07:00,
2013-02-04 08:12:00,28.8,24.0,30.07,WNW,288,2.0,2.0,82,0.00,,CLR,0.00,VWS V14.01,2013-02-04 13:12:00,
2013-02-04 08:17:00,29.0,23.9,30.08,WNW,288,2.0,2.0,81,0.00,,CLR,0.00,VWS V14.01,2013-02-04 13:17:00,
2013-02-04 08:22:00,29.3,24.2,30.08,WNW,288,2.0,2.0,81,0.00,,CLR,0.00,VWS V14.01,2013-02-04 13:22:00,
2013-02-04 08:27:00,29.7,24.9,30.08,WNW,288,2.0,2.0,82,0.00,,CLR,0.00,VWS V14.01,2013-02-04 13:27:00,
2013-02-04 08:32:00,29.8,25.0,30.08,WNW,288,2.0,2.0,82,0.00,,CLR,0.00,VWS V14.01,2013-02-04 13:32:00,
2013-02-04 08:37:00,30.0,25.2,30.08,WNW,288,2.0,2.0,82,0.00,,CLR,0.00,VWS V14.01,2013-02-04 13:37:00,
2013-02-04 08:42:00,30.4,25.0,30.08,WNW,288,2.0,2.0,80,0.00,,CLR,0.00,VWS V14.01,2013-02-04 13:42:00,
2013-02-04 08:47:00,30.7,25.3,30.09,WNW,288,2.0,2.0,80,0.00,,CLR,0.00,VWS V14.01,2013-02-04 13:47:00,
2013-02-04 08:52:00,31.3,26.2,30.09,WNW,288,2.0,2.0,81,0.00,,CLR,0.00,VWS V14.01,2013-02-04 13:52:00,
2013-02-04 08:57:00,31.9,26.1,30.09,WNW,288,2.0,2.0,79,0.00,,CLR,0.00,VWS V14.01,2013-02-04 13:57:00,
2013-02-04 09:02:00,32.5,25.5,30.09,WNW,288,2.0,2.0,75,0.00,,CLR,0.00,VWS V14.01,2013-02-04 14:02:00,
2013-02-04 09:07:00,33.1,25.4,30.09,WNW,288,2.0,2.0,73,0.00,,CLR,0.00,VWS V14.01,2013-02-04 14:07:00,
2013-02-04 09:12:00,33.7,25.6,30.09,WNW,288,2.0,2.0,72,0.00,,CLR,0.00,VWS V14.01,2013-02-04 14:12:00,
2013-02-04 09:17:00,34.1,25.4,30.09,WNW,288,2.0,2.0,70,0.00,,CLR,0.00,VWS V14.01,2013-02-04 14:17:00,
2013-02-04 09:22:00,34.7,25.6,30.09,WNW,288,2.0,2.0,69,0.00,,CLR,0.00,VWS V14.01,2013-02-04 14:22:00,
2013-02-04 09:27:00,35.2,25.0,30.09,SE,128,0.0,0.0,66,0.00,,CLR,0.00,VWS V14.01,2013-02-04 14:27:00,
2013-02-04 09:32:00,35.6,24.6,30.08,SE,128,0.0,0.0,64,0.00,,CLR,0.00,VWS V14.01,2013-02-04 14:32:00,
2013-02-04 09:37:00,35.9,26.0,30.08,SE,128,0.0,0.0,67,0.00,,CLR,0.00,VWS V14.01,2013-02-04 14:37:00,
2013-02-04 09:42:00,36.0,26.1,30.08,SE,128,0.0,0.0,67,0.00,,CLR,0.00,VWS V14.01,2013-02-04 14:42:00,
2013-02-04 09:47:00,36.3,26.8,30.10,SE,128,0.0,0.0,68,0.00,,CLR,0.00,VWS V14.01,2013-02-04 14:47:00,
2013-02-04 09:52:00,36.6,24.8,30.10,SE,128,0.0,0.0,62,0.00,,CLR,0.00,VWS V14.01,2013-02-04 14:52:00,
2013-02-04 09:57:00,37.0,26.7,30.10,SE,128,0.0,0.0,66,0.00,,CLR,0.00,VWS V14.01,2013-02-04 14:57:00,
2013-02-04 10:02:00,37.5,26.8,30.08,SE,128,0.0,0.0,65,0.00,,CLR,0.00,VWS V14.01,2013-02-04 15:02:00,
2013-02-04 10:07:00,37.5,26.1,30.08,SE,128,0.0,1.0,63,0.00,,CLR,0.00,VWS V14.01,2013-02-04 15:07:00,
2013-02-04 10:12:00,37.8,25.6,30.08,SE,128,0.0,0.0,61,0.00,,CLR,0.00,VWS V14.01,2013-02-04 15:12:00,
2013-02-04 10:17:00,37.8,26.0,30.09,SE,128,0.0,0.0,62,0.00,,CLR,0.00,VWS V14.01,2013-02-04 15:17:00,
2013-02-04 10:22:00,38.0,26.1,30.09,SE,128,0.0,0.0,62,0.00,,CLR,0.00,VWS V14.01,2013-02-04 15:22:00,
2013-02-04 10:27:00,38.3,26.0,30.09,SE,128,0.0,0.0,61,0.00,,CLR,0.00,VWS V14.01,2013-02-04 15:27:00,
2013-02-04 10:32:00,38.8,25.7,30.10,WSW,240,0.0,2.0,59,0.00,,CLR,0.00,VWS V14.01,2013-02-04 15:32:00,
2013-02-04 10:37:00,39.2,26.1,30.10,WSW,240,0.0,0.0,59,0.00,,CLR,0.00,VWS V14.01,2013-02-04 15:37:00,
2013-02-04 10:42:00,39.6,25.2,30.10,WSW,240,0.0,1.0,56,0.00,,CLR,0.00,VWS V14.01,2013-02-04 15:42:00,
2013-02-04 10:47:00,40.1,26.5,30.11,West,264,0.0,2.0,58,0.00,,CLR,0.00,VWS V14.01,2013-02-04 15:47:00,
2013-02-04 10:52:00,40.5,26.0,30.11,NW,319,0.0,3.0,56,0.00,,CLR,0.00,VWS V14.01,2013-02-04 15:52:00,
2013-02-04 10:57:00,40.6,26.1,30.11,SW,236,2.0,3.0,56,0.00,,CLR,0.00,VWS V14.01,2013-02-04 15:57:00,
2013-02-04 11:02:00,40.8,25.5,30.10,SW,236,0.0,4.0,54,0.00,,CLR,0.00,VWS V14.01,2013-02-04 16:02:00,
2013-02-04 11:07:00,40.9,26.0,30.10,SW,236,0.0,1.0,55,0.00,,CLR,0.00,VWS V14.01,2013-02-04 16:07:00,
2013-02-04 11:12:00,41.1,26.2,30.10,SW,236,0.0,0.0,55,0.00,,CLR,0.00,VWS V14.01,2013-02-04 16:12:00,
2013-02-04 11:17:00,41.2,26.3,30.10,SW,236,0.0,0.0,55,0.00,,CLR,0.00,VWS V14.01,2013-02-04 16:17:00,
2013-02-04 11:22:00,41.6,26.6,30.10,SW,236,0.0,0.0,55,0.00,,CLR,0.00,VWS V14.01,2013-02-04 16:22:00,
2013-02-04 11:27:00,42.1,26.2,30.10,WNW,295,0.0,3.0,53,0.00,,CLR,0.00,VWS V14.01,2013-02-04 16:27:00,
2013-02-04 11:32:00,42.3,26.4,30.09,WNW,294,0.0,2.0,53,0.00,,CLR,0.00,VWS V14.01,2013-02-04 16:32:00,
2013-02-04 11:37:00,42.3,25.9,30.09,WNW,294,0.0,0.0,52,0.00,,CLR,0.00,VWS V14.01,2013-02-04 16:37:00,
2013-02-04 11:42:00,42.6,25.3,30.09,WNW,296,0.0,0.0,50,0.00,,CLR,0.00,VWS V14.01,2013-02-04 16:42:00,
2013-02-04 11:47:00,43.2,26.3,30.08,NW,308,0.0,3.0,51,0.00,,CLR,0.00,VWS V14.01,2013-02-04 16:47:00,
2013-02-04 11:52:00,43.3,25.9,30.08,WNW,296,1.0,2.0,50,0.00,,CLR,0.00,VWS V14.01,2013-02-04 16:52:00,
2013-02-04 11:57:00,43.5,25.6,30.08,WNW,296,0.0,0.0,49,0.00,,CLR,0.00,VWS V14.01,2013-02-04 16:57:00,
2013-02-04 12:02:00,43.8,26.4,30.08,WNW,296,0.0,0.0,50,0.00,,CLR,0.00,VWS V14.01,2013-02-04 17:02:00,
2013-02-04 12:07:00,44.3,25.4,30.08,WNW,296,0.0,0.0,47,0.00,,CLR,0.00,VWS V14.01,2013-02-04 17:07:00,
2013-02-04 12:12:00,44.6,25.6,30.08,WNW,302,0.0,0.0,47,0.00,,CLR,0.00,VWS V14.01,2013-02-04 17:12:00,
2013-02-04 12:17:00,44.9,24.9,30.07,NE,40,0.0,2.0,45,0.00,,CLR,0.00,VWS V14.01,2013-02-04 17:17:00,
2013-02-04 12:22:00,44.9,24.3,30.07,ENE,70,0.0,0.0,44,0.00,,CLR,0.00,VWS V14.01,2013-02-04 17:22:00,
2013-02-04 12:27:00,45.1,24.0,30.07,NNE,27,0.0,0.0,43,0.00,,CLR,0.00,VWS V14.01,2013-02-04 17:27:00,
2013-02-04 12:32:00,45.5,25.9,30.07,NW,325,0.0,3.0,46,0.00,,CLR,0.00,VWS V14.01,2013-02-04 17:32:00,
2013-02-04 12:37:00,45.8,24.6,30.07,NNW,341,0.0,2.0,43,0.00,,CLR,0.00,VWS V14.01,2013-02-04 17:37:00,
2013-02-04 12:42:00,46.0,24.8,30.07,NNW,341,0.0,0.0,43,0.00,,CLR,0.00,VWS V14.01,2013-02-04 17:42:00,
2013-02-04 12:47:00,46.1,24.9,30.06,SW,225,0.0,2.0,43,0.00,,CLR,0.00,VWS V14.01,2013-02-04 17:47:00,
2013-02-04 12:52:00,46.1,26.0,30.06,SSE,165,0.0,2.0,45,0.00,,CLR,0.00,VWS V14.01,2013-02-04 17:52:00,
2013-02-04 12:57:00,46.1,25.4,30.06,SSE,150,0.0,3.0,44,0.00,,CLR,0.00,VWS V14.01,2013-02-04 17:57:00,
2013-02-04 13:02:00,46.1,24.3,30.05,South,190,0.0,0.0,42,0.00,,CLR,0.00,VWS V14.01,2013-02-04 18:02:00,
2013-02-04 13:07:00,46.4,24.6,30.05,South,174,0.0,3.0,42,0.00,,CLR,0.00,VWS V14.01,2013-02-04 18:07:00,
2013-02-04 13:12:00,46.7,24.8,30.05,SSW,207,1.0,3.0,42,0.00,,CLR,0.00,VWS V14.01,2013-02-04 18:12:00,
2013-02-04 13:17:00,46.8,24.9,30.05,SSW,195,0.0,0.0,42,0.00,,CLR,0.00,VWS V14.01,2013-02-04 18:17:00,
2013-02-04 13:22:00,47.0,25.1,30.05,SSW,198,2.0,3.0,42,0.00,,CLR,0.00,VWS V14.01,2013-02-04 18:22:00,
2013-02-04 13:27:00,47.0,22.7,30.05,SSE,159,0.0,1.0,38,0.00,,CLR,0.00,VWS V14.01,2013-02-04 18:27:00,
2013-02-04 13:32:00,47.0,23.3,30.03,SSE,159,0.0,0.0,39,0.00,,CLR,0.00,VWS V14.01,2013-02-04 18:32:00,
2013-02-04 13:37:00,46.8,21.9,30.03,SSW,196,0.0,0.0,37,0.00,,CLR,0.00,VWS V14.01,2013-02-04 18:37:00,
2013-02-04 13:42:00,47.0,23.3,30.03,SSW,194,0.0,3.0,39,0.00,,CLR,0.00,VWS V14.01,2013-02-04 18:42:00,
2013-02-04 13:47:00,47.0,22.7,30.03,SW,218,0.0,4.0,38,0.00,,CLR,0.00,VWS V14.01,2013-02-04 18:47:00,
2013-02-04 13:52:00,47.1,24.6,30.03,South,190,0.0,4.0,41,0.00,,CLR,0.00,VWS V14.01,2013-02-04 18:52:00,
2013-02-04 13:57:00,47.1,23.4,30.03,SW,215,0.0,3.0,39,0.00,,CLR,0.00,VWS V14.01,2013-02-04 18:57:00,
2013-02-04 14:02:00,47.4,24.3,30.03,South,180,1.0,2.0,40,0.00,,CLR,0.00,VWS V14.01,2013-02-04 19:02:00,
2013-02-04 14:07:00,47.4,24.3,30.03,SSE,166,2.0,4.0,40,0.00,,CLR,0.00,VWS V14.01,2013-02-04 19:07:00,
2013-02-04 14:12:00,47.3,23.6,30.03,SSE,159,2.0,5.0,39,0.00,,CLR,0.00,VWS V14.01,2013-02-04 19:12:00,
2013-02-04 14:17:00,47.3,24.2,30.03,South,171,0.0,2.0,40,0.00,,CLR,0.00,VWS V14.01,2013-02-04 19:17:00,
2013-02-04 14:22:00,47.3,24.8,30.03,South,169,0.0,3.0,41,0.00,,CLR,0.00,VWS V14.01,2013-02-04 19:22:00,
2013-02-04 14:27:00,47.4,24.3,30.03,SSE,155,1.0,3.0,40,0.00,,CLR,0.00,VWS V14.01,2013-02-04 19:27:00,
2013-02-04 14:32:00,47.3,23.6,30.02,SE,143,2.0,5.0,39,0.00,,CLR,0.00,VWS V14.01,2013-02-04 19:32:00,
2013-02-04 14:37:00,47.3,24.2,30.02,SSE,150,2.0,5.0,40,0.00,,CLR,0.00,VWS V14.01,2013-02-04 19:37:00,
2013-02-04 14:42:00,47.3,24.8,30.02,SSE,148,0.0,3.0,41,0.00,,CLR,0.00,VWS V14.01,2013-02-04 19:42:00,
2013-02-04 14:47:00,47.3,24.8,30.02,SSE,153,0.0,3.0,41,0.00,,CLR,0.00,VWS V14.01,2013-02-04 19:47:00,
2013-02-04 14:52:00,47.3,24.8,30.02,SSE,155,3.0,3.0,41,0.00,,CLR,0.00,VWS V14.01,2013-02-04 19:52:00,
2013-02-04 14:57:00,47.3,23.6,30.02,South,186,2.0,4.0,39,0.00,,CLR,0.00,VWS V14.01,2013-02-04 19:57:00,
2013-02-04 15:02:00,47.1,24.0,30.01,SW,228,2.0,4.0,40,0.00,,CLR,0.00,VWS V14.01,2013-02-04 20:02:00,
2013-02-04 15:07:00,47.3,26.0,30.01,South,179,0.0,3.0,43,0.00,,CLR,0.00,VWS V14.01,2013-02-04 20:07:00,
2013-02-04 15:12:00,47.4,24.9,30.01,SW,232,0.0,4.0,41,0.00,,CLR,0.00,VWS V14.01,2013-02-04 20:12:00,
2013-02-04 15:17:00,47.6,25.7,30.01,SSE,166,2.0,3.0,42,0.00,,CLR,0.00,VWS V14.01,2013-02-04 20:17:00,
2013-02-04 15:22:00,47.4,24.9,30.01,West,265,0.0,2.0,41,0.00,,CLR,0.00,VWS V14.01,2013-02-04 20:22:00,
2013-02-04 15:27:00,47.4,25.5,30.01,South,185,2.0,3.0,42,0.00,,CLR,0.00,VWS V14.01,2013-02-04 20:27:00,
2013-02-04 15:32:00,47.1,25.2,30.00,South,178,2.0,3.0,42,0.00,,CLR,0.00,VWS V14.01,2013-02-04 20:32:00,
2013-02-04 15:37:00,47.0,25.1,30.00,SSE,168,2.0,3.0,42,0.00,,CLR,0.00,VWS V14.01,2013-02-04 20:37:00,
2013-02-04 15:42:00,46.8,25.5,30.00,SSE,157,1.0,4.0,43,0.00,,CLR,0.00,VWS V14.01,2013-02-04 20:42:00,
2013-02-04 15:47:00,46.7,24.8,30.00,SSE,159,0.0,0.0,42,0.00,,CLR,0.00,VWS V14.01,2013-02-04 20:47:00,
2013-02-04 15:52:00,46.7,26.0,30.00,SSE,157,1.0,2.0,44,0.00,,CLR,0.00,VWS V14.01,2013-02-04 20:52:00,
2013-02-04 15:57:00,46.7,26.0,30.00,SSE,153,1.0,3.0,44,0.00,,CLR,0.00,VWS V14.01,2013-02-04 20:57:00,
2013-02-04 16:02:00,46.8,26.0,29.99,South,170,2.0,2.0,44,0.00,,CLR,0.00,VWS V14.01,2013-02-04 21:02:00,
2013-02-04 16:07:00,46.7,24.8,29.99,SSW,203,0.0,4.0,42,0.00,,CLR,0.00,VWS V14.01,2013-02-04 21:07:00,
2013-02-04 16:12:00,46.5,24.7,29.99,SSE,157,3.0,3.0,42,0.00,,CLR,0.00,VWS V14.01,2013-02-04 21:12:00,
2013-02-04 16:17:00,46.5,25.2,30.00,SSE,166,0.0,3.0,43,0.00,,CLR,0.00,VWS V14.01,2013-02-04 21:17:00,
2013-02-04 16:22:00,46.5,25.8,30.00,SSW,196,0.0,0.0,44,0.00,,CLR,0.00,VWS V14.01,2013-02-04 21:22:00,
2013-02-04 16:27:00,46.7,26.0,30.00,SSW,196,0.0,0.0,44,0.00,,CLR,0.00,VWS V14.01,2013-02-04 21:27:00,
2013-02-04 16:32:00,46.8,26.0,30.01,SSW,210,0.0,1.0,44,0.00,,CLR,0.00,VWS V14.01,2013-02-04 21:32:00,
2013-02-04 16:37:00,46.7,26.0,30.01,South,185,0.0,2.0,44,0.00,,CLR,0.00,VWS V14.01,2013-02-04 21:37:00,
2013-02-04 16:42:00,46.5,25.8,30.01,SW,227,0.0,3.0,44,0.00,,CLR,0.00,VWS V14.01,2013-02-04 21:42:00,
2013-02-04 16:47:00,46.4,25.7,30.01,SSW,195,0.0,1.0,44,0.00,,BKN110,0.00,VWS V14.01,2013-02-04 21:47:00,
2013-02-04 16:52:00,46.4,25.7,30.01,SSW,192,1.0,4.0,44,0.00,,BKN110,0.00,VWS V14.01,2013-02-04 21:52:00,
2013-02-04 16:57:00,46.2,26.0,30.01,SSE,164,2.0,2.0,45,0.00,,BKN110,0.00,VWS V14.01,2013-02-04 21:57:00,
2013-02-04 17:02:00,46.1,27.0,30.01,South,190,0.0,2.0,47,0.00,,BKN110,0.00,VWS V14.01,2013-02-04 22:02:00,
2013-02-04 17:07:00,46.0,26.4,30.01,South,188,0.0,0.0,46,0.00,,BKN110,0.00,VWS V14.01,2013-02-04 22:07:00,
2013-02-04 17:12:00,45.8,26.7,30.01,SSW,198,0.0,4.0,47,0.00,,BKN110,0.00,VWS V14.01,2013-02-04 22:12:00,
2013-02-04 17:17:00,45.7,26.6,30.01,South,176,1.0,2.0,47,0.00,,BKN110,0.00,VWS V14.01,2013-02-04 22:17:00,
2013-02-04 17:22:00,45.7,26.6,30.01,South,180,1.0,1.0,47,0.00,,BKN110,0.00,VWS V14.01,2013-02-04 22:22:00,
2013-02-04 17:27:00,45.5,26.5,30.01,South,190,0.0,0.0,47,0.00,,BKN110,0.00,VWS V14.01,2013-02-04 22:27:00,
2013-02-04 17:32:00,45.4,27.4,30.00,South,184,0.0,0.0,49,0.00,,BKN110,0.00,VWS V14.01,2013-02-04 22:32:00,
2013-02-04 17:37:00,45.1,27.1,30.00,South,184,0.0,0.0,49,0.00,,BKN110,0.00,VWS V14.01,2013-02-04 22:37:00,
2013-02-04 17:42:00,44.9,26.9,30.00,South,184,0.0,0.0,49,0.00,,BKN110,0.00,VWS V14.01,2013-02-04 22:42:00,
2013-02-04 17:47:00,44.8,26.8,30.01,South,184,0.0,0.0,49,0.00,,CLR,0.00,VWS V14.01,2013-02-04 22:47:00,
2013-02-04 17:52:00,44.6,27.1,30.01,South,184,0.0,0.0,50,0.00,,CLR,0.00,VWS V14.01,2013-02-04 22:52:00,
2013-02-04 17:57:00,44.3,26.9,30.01,South,184,0.0,0.0,50,0.00,,CLR,0.00,VWS V14.01,2013-02-04 22:57:00,
2013-02-04 18:02:00,44.1,28.1,30.01,South,184,0.0,0.0,53,0.00,,CLR,0.00,VWS V14.01,2013-02-04 23:02:00,
2013-02-04 18:07:00,43.8,28.2,30.01,South,184,0.0,0.0,54,0.00,,CLR,0.00,VWS V14.01,2013-02-04 23:07:00,
2013-02-04 18:12:00,43.3,27.3,30.01,South,184,0.0,0.0,53,0.00,,CLR,0.00,VWS V14.01,2013-02-04 23:12:00,
2013-02-04 18:17:00,43.2,27.7,30.01,South,184,0.0,0.0,54,0.00,,CLR,0.00,VWS V14.01,2013-02-04 23:17:00,
2013-02-04 18:22:00,42.9,28.3,30.01,South,184,0.0,0.0,56,0.00,,CLR,0.00,VWS V14.01,2013-02-04 23:22:00,
2013-02-04 18:27:00,42.6,28.0,30.01,South,184,0.0,0.0,56,0.00,,CLR,0.00,VWS V14.01,2013-02-04 23:27:00,
2013-02-04 18:32:00,42.5,27.9,30.00,South,184,0.0,0.0,56,0.00,,CLR,0.00,VWS V14.01,2013-02-04 23:32:00,
2013-02-04 18:37:00,42.5,27.9,30.00,South,184,0.0,0.0,56,0.00,,CLR,0.00,VWS V14.01,2013-02-04 23:37:00,
2013-02-04 18:42:00,42.3,27.7,30.00,South,184,0.0,0.0,56,0.00,,CLR,0.00,VWS V14.01,2013-02-04 23:42:00,
2013-02-04 18:47:00,42.3,27.3,30.00,South,184,0.0,0.0,55,0.00,,CLR,0.00,VWS V14.01,2013-02-04 23:47:00,
2013-02-04 18:52:00,42.3,27.3,30.00,South,184,0.0,0.0,55,0.00,,CLR,0.00,VWS V14.01,2013-02-04 23:52:00,
2013-02-04 18:57:00,42.3,27.7,30.00,South,184,0.0,0.0,56,0.00,,CLR,0.00,VWS V14.01,2013-02-04 23:57:00,
2013-02-04 19:02:00,42.3,27.7,30.00,South,184,0.0,0.0,56,0.00,,CLR,0.00,VWS V14.01,2013-02-05 00:02:00,
2013-02-04 19:07:00,42.2,27.6,30.00,South,184,0.0,0.0,56,0.00,,CLR,0.00,VWS V14.01,2013-02-05 00:07:00,
2013-02-04 19:12:00,42.2,27.6,30.00,South,184,0.0,0.0,56,0.00,,CLR,0.00,VWS V14.01,2013-02-05 00:12:00,
2013-02-04 19:17:00,42.2,27.2,30.01,South,184,0.0,0.0,55,0.00,,CLR,0.00,VWS V14.01,2013-02-05 00:17:00,
2013-02-04 19:22:00,41.9,27.8,30.01,South,184,0.0,0.0,57,0.00,,CLR,0.00,VWS V14.01,2013-02-05 00:22:00,
2013-02-04 19:27:00,41.8,27.7,30.01,South,184,0.0,0.0,57,0.00,,CLR,0.00,VWS V14.01,2013-02-05 00:27:00,
2013-02-04 19:32:00,41.8,27.3,30.01,South,184,0.0,0.0,56,0.00,,CLR,0.00,VWS V14.01,2013-02-05 00:32:00,
2013-02-04 19:37:00,41.6,27.1,30.01,South,184,0.0,0.0,56,0.00,,CLR,0.00,VWS V14.01,2013-02-05 00:37:00,
2013-02-04 19:42:00,41.5,27.0,30.01,South,184,0.0,0.0,56,0.00,,CLR,0.00,VWS V14.01,2013-02-05 00:42:00,
2013-02-04 19:47:00,41.3,26.8,30.01,South,184,0.0,0.0,56,0.00,,CLR,0.00,VWS V14.01,2013-02-05 00:47:00,
2013-02-04 19:53:00,41.2,26.7,30.01,South,184,0.0,0.0,56,0.00,,CLR,0.00,VWS V14.01,2013-02-05 00:53:00,
2013-02-04 19:58:00,41.1,27.0,30.01,South,184,0.0,0.0,57,0.00,,CLR,0.00,VWS V14.01,2013-02-05 00:58:00,
2013-02-04 20:03:00,40.9,27.3,30.01,South,184,0.0,0.0,58,0.00,,CLR,0.00,VWS V14.01,2013-02-05 01:03:00,
2013-02-04 20:08:00,40.8,27.2,30.01,South,184,0.0,0.0,58,0.00,,CLR,0.00,VWS V14.01,2013-02-05 01:08:00,
2013-02-04 20:13:00,40.6,27.4,30.01,South,184,0.0,0.0,59,0.00,,CLR,0.00,VWS V14.01,2013-02-05 01:13:00,
2013-02-04 20:18:00,40.6,27.4,30.01,South,184,0.0,0.0,59,0.00,,CLR,0.00,VWS V14.01,2013-02-05 01:18:00,
2013-02-04 20:23:00,40.5,27.3,30.01,South,184,0.0,0.0,59,0.00,,CLR,0.00,VWS V14.01,2013-02-05 01:23:00,
2013-02-04 20:28:00,40.3,27.1,30.01,South,184,0.0,0.0,59,0.00,,CLR,0.00,VWS V14.01,2013-02-05 01:28:00,
2013-02-04 20:33:00,40.2,27.4,30.01,South,184,0.0,0.0,60,0.00,,CLR,0.00,VWS V14.01,2013-02-05 01:33:00,
2013-02-04 20:38:00,40.1,27.4,30.01,South,184,0.0,0.0,60,0.00,,CLR,0.00,VWS V14.01,2013-02-05 01:38:00,
2013-02-04 20:43:00,40.1,27.8,30.01,South,184,0.0,0.0,61,0.00,,CLR,0.00,VWS V14.01,2013-02-05 01:43:00,
2013-02-04 20:48:00,40.1,27.8,30.01,South,184,0.0,0.0,61,0.00,,CLR,0.00,VWS V14.01,2013-02-05 01:48:00,
2013-02-04 20:53:00,40.2,27.8,30.01,South,184,0.0,0.0,61,0.00,,CLR,0.00,VWS V14.01,2013-02-05 01:53:00,
2013-02-04 20:58:00,40.5,28.1,30.01,South,184,0.0,0.0,61,0.00,,CLR,0.00,VWS V14.01,2013-02-05 01:58:00,
2013-02-04 21:03:00,40.8,28.4,30.02,South,184,0.0,0.0,61,0.00,,CLR,0.00,VWS V14.01,2013-02-05 02:03:00,
2013-02-04 21:08:00,40.9,28.5,30.02,South,184,0.0,0.0,61,0.00,,CLR,0.00,VWS V14.01,2013-02-05 02:08:00,
2013-02-04 21:13:00,41.1,28.3,30.02,South,184,0.0,0.0,60,0.00,,CLR,0.00,VWS V14.01,2013-02-05 02:13:00,
2013-02-04 21:18:00,41.2,28.4,30.00,South,184,0.0,0.0,60,0.00,,CLR,0.00,VWS V14.01,2013-02-05 02:18:00,
2013-02-04 21:23:00,41.3,28.5,30.00,South,184,0.0,0.0,60,0.00,,CLR,0.00,VWS V14.01,2013-02-05 02:23:00,
2013-02-04 21:28:00,41.2,28.8,30.00,South,184,0.0,0.0,61,0.00,,CLR,0.00,VWS V14.01,2013-02-05 02:28:00,
2013-02-04 21:33:00,41.2,28.8,30.01,South,184,0.0,0.0,61,0.00,,CLR,0.00,VWS V14.01,2013-02-05 02:33:00,
2013-02-04 21:38:00,41.1,29.1,30.01,South,184,0.0,0.0,62,0.00,,CLR,0.00,VWS V14.01,2013-02-05 02:38:00,
2013-02-04 21:43:00,41.1,28.7,30.01,South,184,0.0,0.0,61,0.00,,CLR,0.00,VWS V14.01,2013-02-05 02:43:00,
2013-02-04 21:48:00,40.9,28.9,30.02,South,184,0.0,0.0,62,0.00,,CLR,0.00,VWS V14.01,2013-02-05 02:48:00,
2013-02-04 21:53:00,40.6,28.6,30.02,South,184,0.0,0.0,62,0.00,,CLR,0.00,VWS V14.01,2013-02-05 02:53:00,
2013-02-04 21:58:00,40.5,28.5,30.02,South,184,0.0,0.0,62,0.00,,CLR,0.00,VWS V14.01,2013-02-05 02:58:00,
2013-02-04 22:03:00,40.2,28.6,30.00,South,184,0.0,0.0,63,0.00,,CLR,0.00,VWS V14.01,2013-02-05 03:03:00,
2013-02-04 22:08:00,40.1,29.3,30.00,South,184,0.0,0.0,65,0.00,,CLR,0.00,VWS V14.01,2013-02-05 03:08:00,
2013-02-04 22:13:00,39.9,28.7,30.00,South,184,0.0,0.0,64,0.00,,CLR,0.00,VWS V14.01,2013-02-05 03:13:00,
2013-02-04 22:18:00,39.9,28.7,30.00,South,184,0.0,0.0,64,0.00,,CLR,0.00,VWS V14.01,2013-02-05 03:18:00,
2013-02-04 22:23:00,39.9,29.9,30.00,South,184,0.0,0.0,67,0.00,,CLR,0.00,VWS V14.01,2013-02-05 03:23:00,
2013-02-04 22:28:00,39.8,29.4,30.00,South,184,0.0,0.0,66,0.00,,CLR,0.00,VWS V14.01,2013-02-05 03:28:00,
2013-02-04 22:33:00,39.8,29.8,30.00,South,184,0.0,0.0,67,0.00,,CLR,0.00,VWS V14.01,2013-02-05 03:33:00,
2013-02-04 22:38:00,39.8,29.8,30.00,South,184,0.0,0.0,67,0.00,,CLR,0.00,VWS V14.01,2013-02-05 03:38:00,
2013-02-04 22:43:00,39.8,29.8,30.00,South,184,0.0,0.0,67,0.00,,CLR,0.00,VWS V14.01,2013-02-05 03:43:00,
2013-02-04 22:48:00,39.8,29.4,30.00,South,184,0.0,0.0,66,0.00,,FEW120,0.00,VWS V14.01,2013-02-05 03:48:00,
2013-02-04 22:53:00,39.9,29.1,30.00,South,184,0.0,0.0,65,0.00,,FEW120,0.00,VWS V14.01,2013-02-05 03:53:00,
2013-02-04 22:58:00,40.1,29.3,30.00,South,184,0.0,0.0,65,0.00,,FEW120,0.00,VWS V14.01,2013-02-05 03:58:00,
2013-02-04 23:03:00,40.2,29.4,29.99,South,184,0.0,0.0,65,0.00,,FEW120,0.00,VWS V14.01,2013-02-05 04:03:00,
2013-02-04 23:08:00,40.5,29.7,29.99,South,184,0.0,0.0,65,0.00,,FEW120,0.00,VWS V14.01,2013-02-05 04:08:00,
2013-02-04 23:13:00,40.6,29.8,29.99,South,184,0.0,0.0,65,0.00,,FEW120,0.00,VWS V14.01,2013-02-05 04:13:00,
2013-02-04 23:18:00,40.6,29.4,29.98,South,184,0.0,0.0,64,0.00,,FEW120,0.00,VWS V14.01,2013-02-05 04:18:00,
2013-02-04 23:23:00,40.9,29.3,29.98,South,184,0.0,0.0,63,0.00,,FEW120,0.00,VWS V14.01,2013-02-05 04:23:00,
2013-02-04 23:28:00,40.9,29.7,29.98,South,184,0.0,0.0,64,0.00,,FEW120,0.00,VWS V14.01,2013-02-05 04:28:00,
2013-02-04 23:33:00,40.8,29.6,29.98,South,184,0.0,0.0,64,0.00,,FEW120,0.00,VWS V14.01,2013-02-05 04:33:00,
2013-02-04 23:38:00,40.6,29.8,29.98,South,184,0.0,0.0,65,0.00,,FEW120,0.00,VWS V14.01,2013-02-05 04:38:00,
2013-02-04 23:43:00,40.5,29.7,29.98,South,184,0.0,0.0,65,0.00,,FEW120,0.00,VWS V14.01,2013-02-05 04:43:00,
2013-02-04 23:48:00,40.5,29.3,29.98,South,184,0.0,0.0,64,0.00,,CLR,0.00,VWS V14.01,2013-02-05 04:48:00,
2013-02-04 23:53:00,40.5,29.7,29.98,South,184,0.0,0.0,65,0.00,,CLR,0.00,VWS V14.01,2013-02-05 04:53:00,
2013-02-04 23:58:00,40.5,29.7,29.98,South,184,0.0,0.0,65,0.00,,CLR,0.00,VWS V14.01,2013-02-05 04:58:00,